This demonstration page uses our WeatherBlox Daily Observations layout. Learn more.

Left ArrowRight Arrow

34.02893, -84.19858

Hourly Observations for August 21, 2020

Temp ( °F °C ) Dew Point ( °F °C ) Humidity (%) Winds ( mph kmh ) Pressure ( in mb ) Visibility ( mi km ) Precip ( " mm )
12:28 am 00:28 Cloudy 69 20.6 68 20 96 96 VRB 3 6 29.94 1014 10 16 0.00 0.00
12:53 am 00:53 Mostly Cloudy 69 20.6 68 20 96 96 VRB 3 6 29.92 1013 10 16 0.00 0.00
1:53 am 01:53 Clear 69 20.6 68 20 96 96 Calm 29.90 1013 10 16 0.00 0.00
2:28 am 02:28 Cloudy 69 20.6 68 20 96 96 Calm 29.92 1013 10 16 0.00 0.00
2:38 am 02:38 Cloudy 69 20.6 68 20 96 96 VRB 3 6 29.92 1013 10 16 0.00 0.00
2:53 am 02:53 Cloudy 69 20.6 68 20 96 96 VRB 3 6 29.91 1013 10 16 0.00 0.00
3:46 am 03:46 Cloudy 69 20.6 68 20 96 96 VRB 3 6 29.90 1013 10 16 0.00 0.00
3:53 am 03:53 Cloudy 69 20.6 68 20 96 96 Calm 29.89 1012 10 16 0.00 0.00
4:08 am 04:08 Mostly Cloudy 69 20.6 68 20 96 96 Calm 29.90 1013 10 16 0.00 0.00
4:53 am 04:53 Cloudy 69 20.6 68 20 96 96 Calm 29.89 1012 10 16 0.00 0.00
5:08 am 05:08 Cloudy 69 20.6 68 20 96 96 Calm 29.90 1013 10 16 0.00 0.00
5:53 am 05:53 Cloudy 69 20.6 68 20 96 96 Calm 29.89 1012 10 16 0.00 0.00
6:49 am 06:49 Cloudy 70 21 68 20 94 94 VRB 3 6 29.91 1013 10 16 0.00 0.00
6:53 am 06:53 Cloudy 69 20.6 68 20 96 96 VRB 3 6 29.91 1013 10 16 0.00 0.00
7:53 am 07:53 Cloudy 69 20.6 68 20 96 96 Calm 29.92 1013 10 16 0.01 0.25
8:46 am 08:46 Cloudy 70 21.1 69 20.6 97 97 Calm 29.93 1014 9 14 0.01 0.25
8:53 am 08:53 Cloudy 70 21.1 69 20.6 97 97 VRB 3 6 29.92 1013 10 16 0.01 0.25
9:53 am 09:53 Cloudy 70 21.1 69 20.6 97 97 VRB 3 6 29.94 1014 10 16 0.00 0.00
10:53 am 10:53 Cloudy 70 21.1 69 20.6 97 97 VRB 3 6 29.94 1014 10 16 0.00 0.00
11:53 am 11:53 Cloudy 72 22.2 70 21.1 94 94 VRB 3 6 29.93 1014 10 16 0.00 0.00
12:53 pm 12:53 Cloudy 77 25 70 21.1 79 79 VRB 3 6 29.92 1013 10 16 0.00 0.00
1:53 pm 13:53 Cloudy 77 25 71 21.7 82 82 Calm 29.90 1013 10 16 0.00 0.00
2:53 pm 14:53 Mostly Cloudy 78 25.6 70 21.1 76 76 VRB 3 6 29.87 1012 10 16 0.00 0.00
3:38 pm 15:38 Mostly Cloudy 79 26.1 70 21.1 74 74 Calm 29.85 1011 10 16 0.00 0.00
3:50 pm 15:50 Mostly Cloudy 81 27 70 21 70 70 Calm 29.85 1011 10 16 0.00 0.00
3:53 pm 15:53 Mostly Cloudy 79 26.1 69 20.6 72 72 VRB 3 6 29.85 1011 10 16 0.00 0.00
4:53 pm 16:53 Mostly Cloudy 79 26.1 70 21.1 74 74 VRB 5 7 29.85 1011 10 16 0.00 0.00
5:53 pm 17:53 Mostly Cloudy with Nearby Thunderstorms 77 25 70 21.1 79 79 VRB 5 7 29.86 1011 10 16 0.00 0.00
6:04 pm 18:04 Cloudy with Nearby Thunderstorms 70 21.1 67 19.4 90 90 W 18 30 29.87 1012 2 3 0.05 1.27
6:08 pm 18:08 Mostly Cloudy with Strong Thunderstorms 69 20.6 67 19.4 93 93 W 21 33 29.88 1012 1 1 0.16 4.06
6:10 pm 18:10 Mostly Cloudy with Strong Thunderstorms 68 20 67 19.4 96 96 W 28 44 29.89 1012 1 1 0.22 5.59
6:17 pm 18:17 Cloudy with Strong Thunderstorms 68 20 66 18.9 93 93 W 13 20 29.90 1013 1 1 0.43 10.92
6:46 pm 18:46 Cloudy with Nearby Thunderstorms 67 19.4 67 19.4 100 100 NW 12 19 29.92 1013 1 1 1.38 35.05
6:53 pm 18:53 Cloudy with Nearby Thunderstorms 68 20 67 19.4 96 96 NNW 8 13 29.91 1013 1 1 1.47 37.34
6:55 pm 18:55 Cloudy with Nearby Thunderstorms 68 20 68 20 100 100 NNW 7 11 29.91 1013 1 2 0.02 0.51
7:17 pm 19:17 Cloudy with Nearby Thunderstorms 68 20 67 19.4 96 96 NE 7 11 29.89 1012 3 5 0.11 2.79
7:49 pm 19:49 Mostly Cloudy 70 21 68 20 94 94 SSE 5 7 29.89 1012 10 16 0.11 2.79
7:53 pm 19:53 Partly Cloudy 69 20.6 68 20 96 96 SE 5 7 29.88 1012 10 16 0.11 2.79
8:53 pm 20:53 Clear 68 20 67 19.4 96 96 Calm 29.88 1012 10 16 0.00 0.00
9:53 pm 21:53 Clear 68 20 67 19.4 96 96 Calm 29.91 1013 10 16 0.00 0.00
10:53 pm 22:53 Mostly Cloudy 68 20 67 19.4 96 96 Calm 29.93 1013 10 16 0.00 0.00
11:53 pm 23:53 Partly Cloudy 67 19.4 67 19.4 100 100 Calm 29.92 1013 9 14 0.00 0.00

Powered by AerisWeather